owner,sensor,date,latitude,longitude,vertical_datum,wind_speed,wind_to_direction,wind_speed_of_gust,qcFlag 
LUMCON,ioos:station:LUMCON:102:1,2016-07-01T00:00:00Z,29.1870,-90.6093,0.0,2.3,212.0,-9999.0,'1111122,1111122,1111122' 
LUMCON,ioos:station:LUMCON:102:1,2016-07-01T00:15:00Z,29.1870,-90.6093,0.0,1.6,205.0,-9999.0,'1111122,1111122,1111122' 
LUMCON,ioos:station:LUMCON:102:1,2016-07-01T00:30:00Z,29.1870,-90.6093,0.0,1.5,181.0,-9999.0,'1111122,1111122,1111122' 
LUMCON,ioos:station:LUMCON:102:1,2016-07-01T00:45:00Z,29.1870,-90.6093,0.0,0.3,173.0,-9999.0,'1111122,1111122,1111122' 
LUMCON,ioos:station:LUMCON:102:1,2016-07-01T01:00:00Z,29.1870,-90.6093,0.0,0.6,298.0,-9999.0,'1111122,1111122,1111122' 
LUMCON,ioos:station:LUMCON:102:1,2016-07-01T01:15:00Z,29.1870,-90.6093,0.0,1.0,14.0,-9999.0,'1111122,1111122,1111122' 
LUMCON,ioos:station:LUMCON:102:1,2016-07-01T01:30:00Z,29.1870,-90.6093,0.0,0.1,107.0,-9999.0,'1111122,1111122,1111122' 
LUMCON,ioos:station:LUMCON:102:1,2016-07-01T01:45:00Z,29.1870,-90.6093,0.0,0.9,68.0,-9999.0,'1111122,1111122,1111122' 
LUMCON,ioos:station:LUMCON:102:1,2016-07-01T02:00:00Z,29.1870,-90.6093,0.0,1.2,21.0,-9999.0,'1111122,1111122,1111122' 
LUMCON,ioos:station:LUMCON:102:1,2016-07-01T02:15:00Z,29.1870,-90.6093,0.0,1.7,27.0,-9999.0,'1111122,1111122,1111122' 
LUMCON,ioos:station:LUMCON:102:1,2016-07-01T02:30:00Z,29.1870,-90.6093,0.0,2.3,41.0,-9999.0,'1111122,1111122,1111122' 
LUMCON,ioos:station:LUMCON:102:1,2016-07-01T02:45:00Z,29.1870,-90.6093,0.0,2.4,82.0,-9999.0,'1111122,1111122,1111122' 
LUMCON,ioos:station:LUMCON:102:1,2016-07-01T03:00:00Z,29.1870,-90.6093,0.0,2.4,52.0,-9999.0,'1111122,1111122,1111122' 
LUMCON,ioos:station:LUMCON:102:1,2016-07-01T03:15:00Z,29.1870,-90.6093,0.0,1.9,82.0,-9999.0,'1111122,1111122,1111122' 
LUMCON,ioos:station:LUMCON:102:1,2016-07-01T03:30:00Z,29.1870,-90.6093,0.0,1.9,73.0,-9999.0,'1111122,1111122,1111122' 
LUMCON,ioos:station:LUMCON:102:1,2016-07-01T03:45:00Z,29.1870,-90.6093,0.0,2.4,48.0,-9999.0,'1111122,1111122,1111122' 
LUMCON,ioos:station:LUMCON:102:1,2016-07-01T04:00:00Z,29.1870,-90.6093,0.0,2.2,24.0,-9999.0,'1111122,1111122,1111122' 
LUMCON,ioos:station:LUMCON:102:1,2016-07-01T04:15:00Z,29.1870,-90.6093,0.0,1.2,70.0,-9999.0,'1111122,1111122,1111122' 
LUMCON,ioos:station:LUMCON:102:1,2016-07-01T04:30:00Z,29.1870,-90.6093,0.0,0.8,85.0,-9999.0,'1111122,1111122,1111122' 
LUMCON,ioos:station:LUMCON:102:1,2016-07-01T04:45:00Z,29.1870,-90.6093,0.0,2.1,112.0,-9999.0,'1111122,1111122,1111122' 
LUMCON,ioos:station:LUMCON:102:1,2016-07-01T05:00:00Z,29.1870,-90.6093,0.0,2.3,143.0,-9999.0,'1111122,1111122,1111122' 
LUMCON,ioos:station:LUMCON:102:1,2016-07-01T05:15:00Z,29.1870,-90.6093,0.0,2.4,158.0,-9999.0,'1111122,1111122,1111122' 
LUMCON,ioos:station:LUMCON:102:1,2016-07-01T05:30:00Z,29.1870,-90.6093,0.0,2.7,155.0,-9999.0,'1111122,1111122,1111122' 
LUMCON,ioos:station:LUMCON:102:1,2016-07-01T05:45:00Z,29.1870,-90.6093,0.0,3.1,136.0,-9999.0,'1111122,1111122,1111122' 
LUMCON,ioos:station:LUMCON:102:1,2016-07-01T06:00:00Z,29.1870,-90.6093,0.0,2.9,139.0,-9999.0,'1111122,1111122,1111122' 
LUMCON,ioos:station:LUMCON:102:1,2016-07-01T06:15:00Z,29.1870,-90.6093,0.0,3.1,154.0,-9999.0,'1111122,1111122,1111122' 
LUMCON,ioos:station:LUMCON:102:1,2016-07-01T06:30:00Z,29.1870,-90.6093,0.0,1.8,146.0,-9999.0,'1111122,1111122,1111122' 
LUMCON,ioos:station:LUMCON:102:1,2016-07-01T06:45:00Z,29.1870,-90.6093,0.0,1.1,157.0,-9999.0,'1111122,1111122,1111122' 
LUMCON,ioos:station:LUMCON:102:1,2016-07-01T07:00:00Z,29.1870,-90.6093,0.0,1.3,182.0,-9999.0,'1111122,1111122,1111122' 
LUMCON,ioos:station:LUMCON:102:1,2016-07-01T07:15:00Z,29.1870,-90.6093,0.0,1.0,208.0,-9999.0,'1111122,1111122,1111122' 
LUMCON,ioos:station:LUMCON:102:1,2016-07-01T07:30:00Z,29.1870,-90.6093,0.0,0.8,173.0,-9999.0,'1111122,1111122,1111122' 
LUMCON,ioos:station:LUMCON:102:1,2016-07-01T07:45:00Z,29.1870,-90.6093,0.0,0.9,217.0,-9999.0,'1111122,1111122,1111122' 
LUMCON,ioos:station:LUMCON:102:1,2016-07-01T08:00:00Z,29.1870,-90.6093,0.0,0.5,227.0,-9999.0,'1111122,1111122,1111122' 
LUMCON,ioos:station:LUMCON:102:1,2016-07-01T08:15:00Z,29.1870,-90.6093,0.0,0.1,289.0,-9999.0,'1111122,1111122,1111122' 
LUMCON,ioos:station:LUMCON:102:1,2016-07-01T08:30:00Z,29.1870,-90.6093,0.0,0.9,247.0,-9999.0,'1111122,1111122,1111122' 
LUMCON,ioos:station:LUMCON:102:1,2016-07-01T08:45:00Z,29.1870,-90.6093,0.0,1.1,252.0,-9999.0,'1111122,1111122,1111122' 
LUMCON,ioos:station:LUMCON:102:1,2016-07-01T09:00:00Z,29.1870,-90.6093,0.0,1.0,285.0,-9999.0,'1111122,1111122,1111122' 
LUMCON,ioos:station:LUMCON:102:1,2016-07-01T09:15:00Z,29.1870,-90.6093,0.0,1.2,288.0,-9999.0,'1111122,1111122,1111122' 
LUMCON,ioos:station:LUMCON:102:1,2016-07-01T09:30:00Z,29.1870,-90.6093,0.0,1.0,325.0,-9999.0,'1111122,1111122,1111122' 
LUMCON,ioos:station:LUMCON:102:1,2016-07-01T09:45:00Z,29.1870,-90.6093,0.0,1.9,23.0,-9999.0,'1111122,1111122,1111122' 
LUMCON,ioos:station:LUMCON:102:1,2016-07-01T10:00:00Z,29.1870,-90.6093,0.0,3.3,28.0,-9999.0,'1111122,1111122,1111122' 
LUMCON,ioos:station:LUMCON:102:1,2016-07-01T10:15:00Z,29.1870,-90.6093,0.0,2.9,24.0,-9999.0,'1111122,1111122,1111122' 
LUMCON,ioos:station:LUMCON:102:1,2016-07-01T10:30:00Z,29.1870,-90.6093,0.0,3.8,28.0,-9999.0,'1111122,1111122,1111122' 
LUMCON,ioos:station:LUMCON:102:1,2016-07-01T10:45:00Z,29.1870,-90.6093,0.0,4.1,40.0,-9999.0,'1111122,1111122,1111122' 
LUMCON,ioos:station:LUMCON:102:1,2016-07-01T11:00:00Z,29.1870,-90.6093,0.0,4.2,39.0,-9999.0,'1111122,1111122,1111122' 
LUMCON,ioos:station:LUMCON:102:1,2016-07-01T11:15:00Z,29.1870,-90.6093,0.0,4.2,33.0,-9999.0,'1111122,1111122,1111122' 
LUMCON,ioos:station:LUMCON:102:1,2016-07-01T11:30:00Z,29.1870,-90.6093,0.0,3.9,49.0,-9999.0,'1111122,1111122,1111122' 
LUMCON,ioos:station:LUMCON:102:1,2016-07-01T11:45:00Z,29.1870,-90.6093,0.0,5.0,37.0,-9999.0,'1111122,1111122,1111122' 
LUMCON,ioos:station:LUMCON:102:1,2016-07-01T12:00:00Z,29.1870,-90.6093,0.0,3.9,50.0,-9999.0,'1111122,1111122,1111122' 
LUMCON,ioos:station:LUMCON:102:1,2016-07-01T12:15:00Z,29.1870,-90.6093,0.0,4.3,47.0,-9999.0,'1111122,1111122,1111122' 
LUMCON,ioos:station:LUMCON:102:1,2016-07-01T12:30:00Z,29.1870,-90.6093,0.0,4.7,41.0,-9999.0,'1111122,1111122,1111122' 
LUMCON,ioos:station:LUMCON:102:1,2016-07-01T12:45:00Z,29.1870,-90.6093,0.0,4.6,34.0,-9999.0,'1111122,1111122,1111122' 
LUMCON,ioos:station:LUMCON:102:1,2016-07-01T13:00:00Z,29.1870,-90.6093,0.0,3.9,60.0,-9999.0,'1111122,1111122,1111122' 
LUMCON,ioos:station:LUMCON:102:1,2016-07-01T13:15:00Z,29.1870,-90.6093,0.0,3.8,51.0,-9999.0,'1111122,1111122,1111122' 
LUMCON,ioos:station:LUMCON:102:1,2016-07-01T13:30:00Z,29.1870,-90.6093,0.0,2.7,62.0,-9999.0,'1111122,1111122,1111122' 
LUMCON,ioos:station:LUMCON:102:1,2016-07-01T13:45:00Z,29.1870,-90.6093,0.0,2.0,73.0,-9999.0,'1111122,1111122,1111122' 
LUMCON,ioos:station:LUMCON:102:1,2016-07-01T14:00:00Z,29.1870,-90.6093,0.0,2.1,47.0,-9999.0,'1111122,1111122,1111122' 
LUMCON,ioos:station:LUMCON:102:1,2016-07-01T14:15:00Z,29.1870,-90.6093,0.0,1.4,75.0,-9999.0,'1111122,1111122,1111122' 
LUMCON,ioos:station:LUMCON:102:1,2016-07-01T14:30:00Z,29.1870,-90.6093,0.0,2.3,92.0,-9999.0,'1111122,1111122,1111122' 
LUMCON,ioos:station:LUMCON:102:1,2016-07-01T14:45:00Z,29.1870,-90.6093,0.0,2.3,63.0,-9999.0,'1111122,1111122,1111122' 
LUMCON,ioos:station:LUMCON:102:1,2016-07-01T15:00:00Z,29.1870,-90.6093,0.0,2.5,73.0,-9999.0,'1111122,1111122,1111122' 
LUMCON,ioos:station:LUMCON:102:1,2016-07-01T15:15:00Z,29.1870,-90.6093,0.0,1.9,79.0,-9999.0,'1111122,1111122,1111122' 
LUMCON,ioos:station:LUMCON:102:1,2016-07-01T15:30:00Z,29.1870,-90.6093,0.0,1.6,75.0,-9999.0,'1111122,1111122,1111122' 
LUMCON,ioos:station:LUMCON:102:1,2016-07-01T15:45:00Z,29.1870,-90.6093,0.0,1.2,84.0,-9999.0,'1111122,1111122,1111122' 
LUMCON,ioos:station:LUMCON:102:1,2016-07-01T16:00:00Z,29.1870,-90.6093,0.0,1.6,76.0,-9999.0,'1111122,1111122,1111122' 
LUMCON,ioos:station:LUMCON:102:1,2016-07-01T16:15:00Z,29.1870,-90.6093,0.0,2.2,78.0,-9999.0,'1111122,1111122,1111122' 
LUMCON,ioos:station:LUMCON:102:1,2016-07-01T16:30:00Z,29.1870,-90.6093,0.0,2.6,111.0,-9999.0,'1111122,1111122,1111122' 
LUMCON,ioos:station:LUMCON:102:1,2016-07-01T16:45:00Z,29.1870,-90.6093,0.0,1.4,82.0,-9999.0,'1111122,1111122,1111122' 
LUMCON,ioos:station:LUMCON:102:1,2016-07-01T17:00:00Z,29.1870,-90.6093,0.0,1.3,132.0,-9999.0,'1111122,1111122,1111122' 
LUMCON,ioos:station:LUMCON:102:1,2016-07-01T17:15:00Z,29.1870,-90.6093,0.0,0.5,168.0,-9999.0,'1111122,1111122,1111122' 
LUMCON,ioos:station:LUMCON:102:1,2016-07-01T17:30:00Z,29.1870,-90.6093,0.0,0.7,165.0,-9999.0,'1111122,1111122,1111122' 
LUMCON,ioos:station:LUMCON:102:1,2016-07-01T17:45:00Z,29.1870,-90.6093,0.0,1.2,156.0,-9999.0,'1111122,1111122,1111122' 
LUMCON,ioos:station:LUMCON:102:1,2016-07-01T18:00:00Z,29.1870,-90.6093,0.0,1.1,72.0,-9999.0,'1111122,1111122,1111122' 
LUMCON,ioos:station:LUMCON:102:1,2016-07-01T18:15:00Z,29.1870,-90.6093,0.0,1.3,153.0,-9999.0,'1111122,1111122,1111122' 
LUMCON,ioos:station:LUMCON:102:1,2016-07-01T18:30:00Z,29.1870,-90.6093,0.0,0.5,103.0,-9999.0,'1111122,1111122,1111122' 
LUMCON,ioos:station:LUMCON:102:1,2016-07-01T18:45:00Z,29.1870,-90.6093,0.0,1.8,75.0,-9999.0,'1111122,1111122,1111122' 
LUMCON,ioos:station:LUMCON:102:1,2016-07-01T19:00:00Z,29.1870,-90.6093,0.0,0.1,261.0,-9999.0,'1111122,1111122,1111122' 
LUMCON,ioos:station:LUMCON:102:1,2016-07-01T19:15:00Z,29.1870,-90.6093,0.0,0.5,195.0,-9999.0,'1111122,1111122,1111122' 
LUMCON,ioos:station:LUMCON:102:1,2016-07-01T19:30:00Z,29.1870,-90.6093,0.0,0.5,200.0,-9999.0,'1111122,1111122,1111122' 
LUMCON,ioos:station:LUMCON:102:1,2016-07-01T19:45:00Z,29.1870,-90.6093,0.0,1.0,246.0,-9999.0,'1111122,1111122,1111122' 
LUMCON,ioos:station:LUMCON:102:1,2016-07-01T20:00:00Z,29.1870,-90.6093,0.0,1.6,224.0,-9999.0,'1111122,1111122,1111122' 
LUMCON,ioos:station:LUMCON:102:1,2016-07-01T20:15:00Z,29.1870,-90.6093,0.0,2.1,255.0,-9999.0,'1111122,1111122,1111122' 
LUMCON,ioos:station:LUMCON:102:1,2016-07-01T20:30:00Z,29.1870,-90.6093,0.0,2.8,254.0,-9999.0,'1111122,1111122,1111122' 
LUMCON,ioos:station:LUMCON:102:1,2016-07-01T20:45:00Z,29.1870,-90.6093,0.0,4.0,275.0,-9999.0,'1111122,1111122,1111122' 
LUMCON,ioos:station:LUMCON:102:1,2016-07-01T21:15:00Z,29.1870,-90.6093,0.0,3.3,258.0,-9999.0,'1111122,1111122,1111122' 
LUMCON,ioos:station:LUMCON:102:1,2016-07-01T21:30:00Z,29.1870,-90.6093,0.0,4.1,261.0,-9999.0,'1111122,1111122,1111122' 
LUMCON,ioos:station:LUMCON:102:1,2016-07-01T21:45:00Z,29.1870,-90.6093,0.0,3.3,247.0,-9999.0,'1111122,1111122,1111122' 
LUMCON,ioos:station:LUMCON:102:1,2016-07-01T22:00:00Z,29.1870,-90.6093,0.0,3.0,253.0,-9999.0,'1111122,1111122,1111122' 
LUMCON,ioos:station:LUMCON:102:1,2016-07-01T22:15:00Z,29.1870,-90.6093,0.0,3.2,245.0,-9999.0,'1111122,1111122,1111122' 
LUMCON,ioos:station:LUMCON:102:1,2016-07-01T22:30:00Z,29.1870,-90.6093,0.0,3.4,256.0,-9999.0,'1111122,1111122,1111122' 
LUMCON,ioos:station:LUMCON:102:1,2016-07-01T22:45:00Z,29.1870,-90.6093,0.0,2.9,286.0,-9999.0,'1111122,1111122,1111122' 
LUMCON,ioos:station:LUMCON:102:1,2016-07-01T23:00:00Z,29.1870,-90.6093,0.0,2.7,288.0,-9999.0,'1111122,1111122,1111122' 
LUMCON,ioos:station:LUMCON:102:1,2016-07-01T23:15:00Z,29.1870,-90.6093,0.0,2.3,222.0,-9999.0,'1111122,1111122,1111122' 
LUMCON,ioos:station:LUMCON:102:1,2016-07-01T23:30:00Z,29.1870,-90.6093,0.0,2.4,246.0,-9999.0,'1111122,1111122,1111122' 
LUMCON,ioos:station:LUMCON:102:1,2016-07-01T23:45:00Z,29.1870,-90.6093,0.0,3.0,251.0,-9999.0,'1111122,1111122,1111122' 
LUMCON,ioos:station:LUMCON:102:1,2016-07-02T00:00:00Z,29.1870,-90.6093,0.0,2.8,268.0,-9999.0,'1111122,1111122,1111122' 
LUMCON,ioos:station:LUMCON:102:1,2016-07-02T00:15:00Z,29.1870,-90.6093,0.0,2.6,271.0,-9999.0,'1111122,1111122,1111122' 
LUMCON,ioos:station:LUMCON:102:1,2016-07-02T00:30:00Z,29.1870,-90.6093,0.0,2.8,273.0,-9999.0,'1111122,1111122,1111122' 
LUMCON,ioos:station:LUMCON:102:1,2016-07-02T00:45:00Z,29.1870,-90.6093,0.0,3.7,272.0,-9999.0,'1111122,1111122,1111122' 
LUMCON,ioos:station:LUMCON:102:1,2016-07-02T01:00:00Z,29.1870,-90.6093,0.0,2.7,255.0,-9999.0,'1111122,1111122,1111122' 
LUMCON,ioos:station:LUMCON:102:1,2016-07-02T01:15:00Z,29.1870,-90.6093,0.0,2.9,263.0,-9999.0,'1111122,1111122,1111122' 
LUMCON,ioos:station:LUMCON:102:1,2016-07-02T01:30:00Z,29.1870,-90.6093,0.0,3.3,265.0,-9999.0,'1111122,1111122,1111122' 
LUMCON,ioos:station:LUMCON:102:1,2016-07-02T01:45:00Z,29.1870,-90.6093,0.0,2.6,277.0,-9999.0,'1111122,1111122,1111122' 
LUMCON,ioos:station:LUMCON:102:1,2016-07-02T02:00:00Z,29.1870,-90.6093,0.0,2.5,279.0,-9999.0,'1111122,1111122,1111122' 
LUMCON,ioos:station:LUMCON:102:1,2016-07-02T02:15:00Z,29.1870,-90.6093,0.0,3.2,264.0,-9999.0,'1111122,1111122,1111122' 
LUMCON,ioos:station:LUMCON:102:1,2016-07-02T02:30:00Z,29.1870,-90.6093,0.0,3.5,276.0,-9999.0,'1111122,1111122,1111122' 
LUMCON,ioos:station:LUMCON:102:1,2016-07-02T02:45:00Z,29.1870,-90.6093,0.0,2.5,290.0,-9999.0,'1111122,1111122,1111122' 
LUMCON,ioos:station:LUMCON:102:1,2016-07-02T03:00:00Z,29.1870,-90.6093,0.0,2.5,286.0,-9999.0,'1111122,1111122,1111122' 
LUMCON,ioos:station:LUMCON:102:1,2016-07-02T03:15:00Z,29.1870,-90.6093,0.0,2.6,272.0,-9999.0,'1111122,1111122,1111122' 
LUMCON,ioos:station:LUMCON:102:1,2016-07-02T03:30:00Z,29.1870,-90.6093,0.0,2.7,266.0,-9999.0,'1111122,1111122,1111122' 
LUMCON,ioos:station:LUMCON:102:1,2016-07-02T03:45:00Z,29.1870,-90.6093,0.0,3.3,282.0,-9999.0,'1111122,1111122,1111122' 
LUMCON,ioos:station:LUMCON:102:1,2016-07-02T04:00:00Z,29.1870,-90.6093,0.0,2.3,274.0,-9999.0,'1111122,1111122,1111122' 
LUMCON,ioos:station:LUMCON:102:1,2016-07-02T04:15:00Z,29.1870,-90.6093,0.0,1.8,286.0,-9999.0,'1111122,1111122,1111122' 
LUMCON,ioos:station:LUMCON:102:1,2016-07-02T04:30:00Z,29.1870,-90.6093,0.0,0.9,292.0,-9999.0,'1111122,1111122,1111122' 
LUMCON,ioos:station:LUMCON:102:1,2016-07-02T04:45:00Z,29.1870,-90.6093,0.0,2.4,314.0,-9999.0,'1111122,1111122,1111122' 
LUMCON,ioos:station:LUMCON:102:1,2016-07-02T05:00:00Z,29.1870,-90.6093,0.0,2.3,302.0,-9999.0,'1111122,1111122,1111122' 
LUMCON,ioos:station:LUMCON:102:1,2016-07-02T05:15:00Z,29.1870,-90.6093,0.0,2.7,256.0,-9999.0,'1111122,1111122,1111122' 
LUMCON,ioos:station:LUMCON:102:1,2016-07-02T05:30:00Z,29.1870,-90.6093,0.0,2.8,277.0,-9999.0,'1111122,1111122,1111122' 
LUMCON,ioos:station:LUMCON:102:1,2016-07-02T05:45:00Z,29.1870,-90.6093,0.0,2.3,258.0,-9999.0,'1111122,1111122,1111122' 
LUMCON,ioos:station:LUMCON:102:1,2016-07-02T06:00:00Z,29.1870,-90.6093,0.0,2.5,268.0,-9999.0,'1111122,1111122,1111122' 
LUMCON,ioos:station:LUMCON:102:1,2016-07-02T06:15:00Z,29.1870,-90.6093,0.0,1.6,262.0,-9999.0,'1111122,1111122,1111122' 
LUMCON,ioos:station:LUMCON:102:1,2016-07-02T06:30:00Z,29.1870,-90.6093,0.0,1.3,281.0,-9999.0,'1111122,1111122,1111122' 
LUMCON,ioos:station:LUMCON:102:1,2016-07-02T06:45:00Z,29.1870,-90.6093,0.0,2.0,256.0,-9999.0,'1111122,1111122,1111122' 
LUMCON,ioos:station:LUMCON:102:1,2016-07-02T07:00:00Z,29.1870,-90.6093,0.0,1.7,308.0,-9999.0,'1111122,1111122,1111122' 
LUMCON,ioos:station:LUMCON:102:1,2016-07-02T07:15:00Z,29.1870,-90.6093,0.0,2.6,329.0,-9999.0,'1111122,1111122,1111122' 
LUMCON,ioos:station:LUMCON:102:1,2016-07-02T07:30:00Z,29.1870,-90.6093,0.0,2.3,333.0,-9999.0,'1111122,1111122,1111122' 
LUMCON,ioos:station:LUMCON:102:1,2016-07-02T07:45:00Z,29.1870,-90.6093,0.0,2.1,337.0,-9999.0,'1111122,1111122,1111122' 
LUMCON,ioos:station:LUMCON:102:1,2016-07-02T08:00:00Z,29.1870,-90.6093,0.0,2.8,310.0,-9999.0,'1111122,1111122,1111122' 
LUMCON,ioos:station:LUMCON:102:1,2016-07-02T08:15:00Z,29.1870,-90.6093,0.0,3.0,307.0,-9999.0,'1111122,1111122,1111122' 
LUMCON,ioos:station:LUMCON:102:1,2016-07-02T08:30:00Z,29.1870,-90.6093,0.0,2.6,317.0,-9999.0,'1111122,1111122,1111122' 
LUMCON,ioos:station:LUMCON:102:1,2016-07-02T08:45:00Z,29.1870,-90.6093,0.0,2.6,323.0,-9999.0,'1111122,1111122,1111122' 
LUMCON,ioos:station:LUMCON:102:1,2016-07-02T09:00:00Z,29.1870,-90.6093,0.0,2.5,320.0,-9999.0,'1111122,1111122,1111122' 
LUMCON,ioos:station:LUMCON:102:1,2016-07-02T09:15:00Z,29.1870,-90.6093,0.0,1.8,297.0,-9999.0,'1111122,1111122,1111122' 
LUMCON,ioos:station:LUMCON:102:1,2016-07-02T09:30:00Z,29.1870,-90.6093,0.0,2.3,311.0,-9999.0,'1111122,1111122,1111122' 
LUMCON,ioos:station:LUMCON:102:1,2016-07-02T09:45:00Z,29.1870,-90.6093,0.0,2.9,298.0,-9999.0,'1111122,1111122,1111122' 
LUMCON,ioos:station:LUMCON:102:1,2016-07-02T10:00:00Z,29.1870,-90.6093,0.0,2.4,302.0,-9999.0,'1111122,1111122,1111122' 
LUMCON,ioos:station:LUMCON:102:1,2016-07-02T10:15:00Z,29.1870,-90.6093,0.0,2.5,302.0,-9999.0,'1111122,1111122,1111122' 
LUMCON,ioos:station:LUMCON:102:1,2016-07-02T10:30:00Z,29.1870,-90.6093,0.0,2.4,314.0,-9999.0,'1111122,1111122,1111122' 
LUMCON,ioos:station:LUMCON:102:1,2016-07-02T10:45:00Z,29.1870,-90.6093,0.0,2.5,318.0,-9999.0,'1111122,1111122,1111122' 
LUMCON,ioos:station:LUMCON:102:1,2016-07-02T11:00:00Z,29.1870,-90.6093,0.0,2.6,341.0,-9999.0,'1111122,1111122,1111122' 
LUMCON,ioos:station:LUMCON:102:1,2016-07-02T11:15:00Z,29.1870,-90.6093,0.0,2.6,311.0,-9999.0,'1111122,1111122,1111122' 
LUMCON,ioos:station:LUMCON:102:1,2016-07-02T11:30:00Z,29.1870,-90.6093,0.0,2.0,357.0,-9999.0,'1111122,1111122,1111122' 
LUMCON,ioos:station:LUMCON:102:1,2016-07-02T11:45:00Z,29.1870,-90.6093,0.0,2.1,341.0,-9999.0,'1111122,1111122,1111122' 
LUMCON,ioos:station:LUMCON:102:1,2016-07-02T12:00:00Z,29.1870,-90.6093,0.0,1.2,346.0,-9999.0,'1111122,1111122,1111122' 
LUMCON,ioos:station:LUMCON:102:1,2016-07-02T12:15:00Z,29.1870,-90.6093,0.0,1.1,348.0,-9999.0,'1111122,1111122,1111122' 
LUMCON,ioos:station:LUMCON:102:1,2016-07-02T12:30:00Z,29.1870,-90.6093,0.0,1.8,335.0,-9999.0,'1111122,1111122,1111122' 
LUMCON,ioos:station:LUMCON:102:1,2016-07-02T12:45:00Z,29.1870,-90.6093,0.0,1.4,354.0,-9999.0,'1111122,1111122,1111122' 
LUMCON,ioos:station:LUMCON:102:1,2016-07-02T13:00:00Z,29.1870,-90.6093,0.0,2.3,353.0,-9999.0,'1111122,1111122,1111122' 
LUMCON,ioos:station:LUMCON:102:1,2016-07-02T13:15:00Z,29.1870,-90.6093,0.0,1.6,348.0,-9999.0,'1111122,1111122,1111122' 
LUMCON,ioos:station:LUMCON:102:1,2016-07-02T13:30:00Z,29.1870,-90.6093,0.0,1.5,345.0,-9999.0,'1111122,1111122,1111122' 
LUMCON,ioos:station:LUMCON:102:1,2016-07-02T13:45:00Z,29.1870,-90.6093,0.0,1.6,341.0,-9999.0,'1111122,1111122,1111122' 
LUMCON,ioos:station:LUMCON:102:1,2016-07-02T14:00:00Z,29.1870,-90.6093,0.0,1.6,332.0,-9999.0,'1111122,1111122,1111122' 
LUMCON,ioos:station:LUMCON:102:1,2016-07-02T14:15:00Z,29.1870,-90.6093,0.0,2.3,21.0,-9999.0,'1111122,1111122,1111122' 
LUMCON,ioos:station:LUMCON:102:1,2016-07-02T14:30:00Z,29.1870,-90.6093,0.0,2.5,355.0,-9999.0,'1111122,1111122,1111122' 
LUMCON,ioos:station:LUMCON:102:1,2016-07-02T14:45:00Z,29.1870,-90.6093,0.0,3.0,16.0,-9999.0,'1111122,1111122,1111122' 
LUMCON,ioos:station:LUMCON:102:1,2016-07-02T15:00:00Z,29.1870,-90.6093,0.0,2.9,47.0,-9999.0,'1111122,1111122,1111122' 
LUMCON,ioos:station:LUMCON:102:1,2016-07-02T15:30:00Z,29.1870,-90.6093,0.0,2.2,43.0,-9999.0,'1111122,1111122,1111122' 
LUMCON,ioos:station:LUMCON:102:1,2016-07-02T15:45:00Z,29.1870,-90.6093,0.0,2.6,36.0,-9999.0,'1111122,1111122,1111122' 
LUMCON,ioos:station:LUMCON:102:1,2016-07-02T16:00:00Z,29.1870,-90.6093,0.0,1.5,47.0,-9999.0,'1111122,1111122,1111122' 
LUMCON,ioos:station:LUMCON:102:1,2016-07-02T16:15:00Z,29.1870,-90.6093,0.0,2.0,102.0,-9999.0,'1111122,1111122,1111122' 
LUMCON,ioos:station:LUMCON:102:1,2016-07-02T16:30:00Z,29.1870,-90.6093,0.0,2.2,95.0,-9999.0,'1111122,1111122,1111122' 
LUMCON,ioos:station:LUMCON:102:1,2016-07-02T16:45:00Z,29.1870,-90.6093,0.0,1.0,138.0,-9999.0,'1111122,1111122,1111122' 
LUMCON,ioos:station:LUMCON:102:1,2016-07-02T17:00:00Z,29.1870,-90.6093,0.0,1.4,132.0,-9999.0,'1111122,1111122,1111122' 
LUMCON,ioos:station:LUMCON:102:1,2016-07-02T17:15:00Z,29.1870,-90.6093,0.0,2.4,149.0,-9999.0,'1111122,1111122,1111122' 
LUMCON,ioos:station:LUMCON:102:1,2016-07-02T17:30:00Z,29.1870,-90.6093,0.0,0.7,182.0,-9999.0,'1111122,1111122,1111122' 
LUMCON,ioos:station:LUMCON:102:1,2016-07-02T17:45:00Z,29.1870,-90.6093,0.0,1.1,127.0,-9999.0,'1111122,1111122,1111122' 
LUMCON,ioos:station:LUMCON:102:1,2016-07-02T18:00:00Z,29.1870,-90.6093,0.0,1.7,223.0,-9999.0,'1111122,1111122,1111122' 
LUMCON,ioos:station:LUMCON:102:1,2016-07-02T18:15:00Z,29.1870,-90.6093,0.0,1.0,238.0,-9999.0,'1111122,1111122,1111122' 
LUMCON,ioos:station:LUMCON:102:1,2016-07-02T18:30:00Z,29.1870,-90.6093,0.0,1.4,174.0,-9999.0,'1111122,1111122,1111122' 
LUMCON,ioos:station:LUMCON:102:1,2016-07-02T18:45:00Z,29.1870,-90.6093,0.0,1.7,201.0,-9999.0,'1111122,1111122,1111122' 
LUMCON,ioos:station:LUMCON:102:1,2016-07-02T19:00:00Z,29.1870,-90.6093,0.0,2.2,196.0,-9999.0,'1111122,1111122,1111122' 
LUMCON,ioos:station:LUMCON:102:1,2016-07-02T19:15:00Z,29.1870,-90.6093,0.0,3.2,201.0,-9999.0,'1111122,1111122,1111122' 
LUMCON,ioos:station:LUMCON:102:1,2016-07-02T19:30:00Z,29.1870,-90.6093,0.0,2.4,208.0,-9999.0,'1111122,1111122,1111122' 
LUMCON,ioos:station:LUMCON:102:1,2016-07-02T19:45:00Z,29.1870,-90.6093,0.0,2.8,209.0,-9999.0,'1111122,1111122,1111122' 
LUMCON,ioos:station:LUMCON:102:1,2016-07-02T20:00:00Z,29.1870,-90.6093,0.0,2.9,222.0,-9999.0,'1111122,1111122,1111122' 
LUMCON,ioos:station:LUMCON:102:1,2016-07-02T20:15:00Z,29.1870,-90.6093,0.0,3.4,201.0,-9999.0,'1111122,1111122,1111122' 
LUMCON,ioos:station:LUMCON:102:1,2016-07-02T20:30:00Z,29.1870,-90.6093,0.0,5.0,236.0,-9999.0,'1111122,1111122,1111122' 
LUMCON,ioos:station:LUMCON:102:1,2016-07-02T20:45:00Z,29.1870,-90.6093,0.0,5.7,231.0,-9999.0,'1111122,1111122,1111122' 
LUMCON,ioos:station:LUMCON:102:1,2016-07-02T21:00:00Z,29.1870,-90.6093,0.0,4.5,236.0,-9999.0,'1111122,1111122,1111122' 
LUMCON,ioos:station:LUMCON:102:1,2016-07-02T21:15:00Z,29.1870,-90.6093,0.0,4.4,235.0,-9999.0,'1111122,1111122,1111122' 
LUMCON,ioos:station:LUMCON:102:1,2016-07-02T21:30:00Z,29.1870,-90.6093,0.0,6.2,234.0,-9999.0,'1111122,1111122,1111122' 
LUMCON,ioos:station:LUMCON:102:1,2016-07-02T21:45:00Z,29.1870,-90.6093,0.0,6.6,240.0,-9999.0,'1111122,1111122,1111122' 
LUMCON,ioos:station:LUMCON:102:1,2016-07-02T22:00:00Z,29.1870,-90.6093,0.0,5.6,235.0,-9999.0,'1111122,1111122,1111122' 
LUMCON,ioos:station:LUMCON:102:1,2016-07-02T22:15:00Z,29.1870,-90.6093,0.0,5.6,228.0,-9999.0,'1111122,1111122,1111122' 
LUMCON,ioos:station:LUMCON:102:1,2016-07-02T22:30:00Z,29.1870,-90.6093,0.0,5.3,246.0,-9999.0,'1111122,1111122,1111122' 
LUMCON,ioos:station:LUMCON:102:1,2016-07-02T22:45:00Z,29.1870,-90.6093,0.0,4.9,249.0,-9999.0,'1111122,1111122,1111122' 
LUMCON,ioos:station:LUMCON:102:1,2016-07-02T23:00:00Z,29.1870,-90.6093,0.0,5.6,249.0,-9999.0,'1111122,1111122,1111122' 
LUMCON,ioos:station:LUMCON:102:1,2016-07-02T23:15:00Z,29.1870,-90.6093,0.0,5.2,235.0,-9999.0,'1111122,1111122,1111122' 
LUMCON,ioos:station:LUMCON:102:1,2016-07-02T23:30:00Z,29.1870,-90.6093,0.0,5.5,251.0,-9999.0,'1111122,1111122,1111122' 
LUMCON,ioos:station:LUMCON:102:1,2016-07-02T23:45:00Z,29.1870,-90.6093,0.0,4.9,259.0,-9999.0,'1111122,1111122,1111122' 
LUMCON,ioos:station:LUMCON:102:1,2016-07-03T00:00:00Z,29.1870,-90.6093,0.0,3.7,250.0,-9999.0,'1111122,1111122,1111122' 
LUMCON,ioos:station:LUMCON:102:1,2016-07-03T00:15:00Z,29.1870,-90.6093,0.0,4.0,238.0,-9999.0,'1111122,1111122,1111122' 
LUMCON,ioos:station:LUMCON:102:1,2016-07-03T00:30:00Z,29.1870,-90.6093,0.0,4.0,255.0,-9999.0,'1111122,1111122,1111122' 
LUMCON,ioos:station:LUMCON:102:1,2016-07-03T00:45:00Z,29.1870,-90.6093,0.0,5.1,240.0,-9999.0,'1111122,1111122,1111122' 
LUMCON,ioos:station:LUMCON:102:1,2016-07-03T01:00:00Z,29.1870,-90.6093,0.0,3.7,268.0,-9999.0,'1111122,1111122,1111122' 
LUMCON,ioos:station:LUMCON:102:1,2016-07-03T01:15:00Z,29.1870,-90.6093,0.0,4.8,254.0,-9999.0,'1111122,1111122,1111122' 
LUMCON,ioos:station:LUMCON:102:1,2016-07-03T01:30:00Z,29.1870,-90.6093,0.0,3.1,273.0,-9999.0,'1111122,1111122,1111122' 
LUMCON,ioos:station:LUMCON:102:1,2016-07-03T01:45:00Z,29.1870,-90.6093,0.0,2.6,255.0,-9999.0,'1111122,1111122,1111122' 
LUMCON,ioos:station:LUMCON:102:1,2016-07-03T02:00:00Z,29.1870,-90.6093,0.0,2.5,242.0,-9999.0,'1111122,1111122,1111122' 